Location: Newark
(34.1333°N, 7.9667°W)
Time: 03:39:14
(UTC+00:00)

Transit 2A - Pass Details

Date: 18 June 2021
Orbit: 598 x 960 km, 66.7° (Epoch: 30 July)

Event Time Altitude Azimuth Distance (km) Brightness Sun altitude
Rises 16:27:36 0° 194° (SSW) 2,906 9.1 38.2°
Reaches altitude 10° 16:29:56 10° 190° (S) 1,971 8.3 37.7°
Maximum altitude 16:34:12 53° 113° (ESE) 736 6.1 36.9°
Drops below altitude 10° 16:38:24 10° 36° (NE) 1,939 7.9 36.0°
Sets 16:40:41 0° 32° (NNE) 2,855 8.8 35.5°
